Time,TemperatureF,DewpointF,PressureIn,WindDirection,WindDirectionDegrees,WindSpeedMPH,WindSpeedGustMPH,Humidity,HourlyPrecipIn,Conditions,Clouds,dailyrainin,SoftwareType,DateUTC
2013-08-18 00:02:00,59.9,21.0,29.03,West,267,0.0,0.0,22,0.00,,---,0.00,VWS V14.01,2013-08-18 08:02:00,
2013-08-18 00:07:00,59.9,21.0,29.03,West,267,0.0,0.0,22,0.00,,---,0.00,VWS V14.01,2013-08-18 08:07:00,
2013-08-18 00:12:00,59.9,17.6,29.03,West,267,0.0,0.0,19,0.00,,---,0.00,VWS V14.01,2013-08-18 08:12:00,
2013-08-18 00:17:00,59.9,21.0,29.03,West,268,0.0,0.0,22,0.00,,---,0.00,VWS V14.01,2013-08-18 08:17:00,
2013-08-18 00:22:00,59.5,20.7,29.03,West,267,0.0,0.0,22,0.00,,---,0.00,VWS V14.01,2013-08-18 08:22:00,
2013-08-18 00:28:00,59.4,20.5,29.03,West,267,0.0,0.0,22,0.00,,---,0.00,VWS V14.01,2013-08-18 08:28:00,
2013-08-18 00:33:00,59.4,20.5,29.03,West,268,0.0,0.0,22,0.00,,---,0.00,VWS V14.01,2013-08-18 08:33:00,
2013-08-18 00:38:00,59.4,20.5,29.03,West,267,0.0,0.0,22,0.00,,---,0.00,VWS V14.01,2013-08-18 08:38:00,
2013-08-18 00:43:00,59.2,22.4,29.03,West,267,0.0,0.0,24,0.00,,---,0.00,VWS V14.01,2013-08-18 08:43:00,
2013-08-18 00:49:00,59.0,22.3,29.03,West,267,0.0,0.0,24,0.00,,---,0.00,VWS V14.01,2013-08-18 08:49:00,
2013-08-18 00:54:00,58.8,23.1,29.03,West,267,0.0,0.0,25,0.00,,---,0.00,VWS V14.01,2013-08-18 08:54:00,
2013-08-18 01:00:00,58.6,22.9,29.03,West,267,0.0,0.0,25,0.00,,---,0.00,VWS V14.01,2013-08-18 09:00:00,
2013-08-18 01:05:00,58.5,22.8,29.03,West,267,0.0,0.0,25,0.00,,---,0.00,VWS V14.01,2013-08-18 09:05:00,
2013-08-18 01:11:00,58.3,22.6,29.03,West,267,0.0,0.0,25,0.00,,---,0.00,VWS V14.01,2013-08-18 09:11:00,
2013-08-18 01:16:00,58.3,23.6,29.03,West,268,0.0,0.0,26,0.00,,---,0.00,VWS V14.01,2013-08-18 09:16:00,
2013-08-18 01:22:00,58.3,23.6,29.03,West,268,0.0,0.0,26,0.00,,---,0.00,VWS V14.01,2013-08-18 09:22:00,
2013-08-18 01:28:00,57.9,23.3,29.03,West,267,0.0,0.0,26,0.00,,---,0.00,VWS V14.01,2013-08-18 09:28:00,
2013-08-18 01:33:00,57.7,23.1,29.03,West,267,0.0,0.0,26,0.00,,---,0.00,VWS V14.01,2013-08-18 09:33:00,
2013-08-18 01:39:00,57.7,23.1,29.03,West,267,0.0,0.0,26,0.00,,---,0.00,VWS V14.01,2013-08-18 09:39:00,
2013-08-18 01:45:00,57.7,23.1,29.03,West,267,0.0,0.0,26,0.00,,---,0.00,VWS V14.01,2013-08-18 09:45:00,
2013-08-18 01:50:00,57.7,24.0,29.03,West,267,0.0,0.0,27,0.00,,---,0.00,VWS V14.01,2013-08-18 09:50:00,
2013-08-18 01:56:00,57.9,25.0,29.03,West,268,0.0,0.0,28,0.00,,---,0.00,VWS V14.01,2013-08-18 09:56:00,
2013-08-18 02:01:00,57.9,25.9,29.03,West,267,0.0,0.0,29,0.00,,---,0.00,VWS V14.01,2013-08-18 10:01:00,
2013-08-18 02:07:00,57.6,25.6,29.03,West,267,0.0,0.0,29,0.00,,---,0.00,VWS V14.01,2013-08-18 10:07:00,
2013-08-18 02:13:00,57.6,26.4,29.03,West,267,0.0,0.0,30,0.00,,---,0.00,VWS V14.01,2013-08-18 10:13:00,
2013-08-18 02:18:00,57.6,27.2,29.03,West,267,0.0,0.0,31,0.00,,---,0.00,VWS V14.01,2013-08-18 10:18:00,
2013-08-18 02:24:00,57.6,27.2,29.03,West,267,0.0,0.0,31,0.00,,---,0.00,VWS V14.01,2013-08-18 10:24:00,
2013-08-18 02:29:00,57.4,27.0,29.03,West,267,0.0,0.0,31,0.00,,---,0.00,VWS V14.01,2013-08-18 10:29:00,
2013-08-18 02:35:00,57.4,27.0,29.00,West,267,0.0,0.0,31,0.00,,---,0.00,VWS V14.01,2013-08-18 10:35:00,
2013-08-18 02:41:00,57.4,28.5,29.00,West,267,0.0,0.0,33,0.00,,---,0.00,VWS V14.01,2013-08-18 10:41:00,
2013-08-18 02:46:00,57.4,30.0,29.03,West,267,0.0,0.0,35,0.00,,---,0.00,VWS V14.01,2013-08-18 10:46:00,
2013-08-18 02:51:00,57.4,30.7,29.03,West,267,0.0,0.0,36,0.00,,---,0.00,VWS V14.01,2013-08-18 10:51:00,
2013-08-18 02:56:00,57.2,30.5,29.03,West,267,0.0,0.0,36,0.00,,---,0.00,VWS V14.01,2013-08-18 10:56:00,
2013-08-18 03:02:00,56.8,31.5,29.03,West,267,0.0,0.0,38,0.00,,---,0.00,VWS V14.01,2013-08-18 11:02:00,
2013-08-18 03:07:00,56.1,30.9,29.03,West,267,0.0,0.0,38,0.00,,---,0.00,VWS V14.01,2013-08-18 11:07:00,
2013-08-18 03:13:00,56.1,30.9,29.03,West,267,0.0,0.0,38,0.00,,---,0.00,VWS V14.01,2013-08-18 11:13:00,
2013-08-18 03:18:00,56.1,31.5,29.03,West,268,0.0,0.0,39,0.00,,---,0.00,VWS V14.01,2013-08-18 11:18:00,
2013-08-18 03:24:00,55.6,32.9,29.03,West,267,0.0,0.0,42,0.00,,---,0.00,VWS V14.01,2013-08-18 11:24:00,
2013-08-18 03:29:00,55.2,32.0,29.03,West,268,0.0,0.0,41,0.00,,---,0.00,VWS V14.01,2013-08-18 11:29:00,
2013-08-18 03:35:00,55.8,31.8,29.03,West,267,0.0,0.0,40,0.00,,---,0.00,VWS V14.01,2013-08-18 11:35:00,
2013-08-18 03:41:00,55.4,32.1,29.03,West,267,0.0,0.0,41,0.00,,---,0.00,VWS V14.01,2013-08-18 11:41:00,
2013-08-18 03:46:00,55.4,32.1,29.03,West,267,0.0,0.0,41,0.00,,---,0.00,VWS V14.01,2013-08-18 11:46:00,
2013-08-18 03:51:00,55.8,33.0,29.03,West,267,0.0,0.0,42,0.00,,---,0.00,VWS V14.01,2013-08-18 11:51:00,
2013-08-18 03:56:00,55.8,33.0,29.03,West,268,0.0,0.0,42,0.00,,---,0.00,VWS V14.01,2013-08-18 11:56:00,
2013-08-18 04:02:00,55.6,32.3,29.03,West,267,0.0,0.0,41,0.00,,---,0.00,VWS V14.01,2013-08-18 12:02:00,
2013-08-18 04:07:00,56.3,34.7,29.03,West,267,0.0,0.0,44,0.00,,---,0.00,VWS V14.01,2013-08-18 12:07:00,
2013-08-18 04:13:00,56.5,32.5,29.03,West,267,0.0,0.0,40,0.00,,---,0.00,VWS V14.01,2013-08-18 12:13:00,
2013-08-18 04:19:00,56.7,31.4,29.03,SW,214,0.0,2.7,38,0.00,,---,0.00,VWS V14.01,2013-08-18 12:19:00,
2013-08-18 04:24:00,56.7,31.4,29.03,SSW,213,0.0,0.0,38,0.00,,---,0.00,VWS V14.01,2013-08-18 12:24:00,
2013-08-18 04:30:00,56.5,31.2,29.03,SSW,213,0.0,0.0,38,0.00,,---,0.00,VWS V14.01,2013-08-18 12:30:00,
2013-08-18 04:35:00,56.3,31.0,29.03,SSW,213,0.0,0.0,38,0.00,,---,0.00,VWS V14.01,2013-08-18 12:35:00,
2013-08-18 04:40:00,56.7,32.6,29.03,SW,214,0.0,0.0,40,0.00,,---,0.00,VWS V14.01,2013-08-18 12:40:00,
2013-08-18 04:45:00,56.7,33.2,29.03,SSW,213,0.0,0.0,41,0.00,,---,0.00,VWS V14.01,2013-08-18 12:45:00,
2013-08-18 04:51:00,56.3,32.9,29.03,SSW,213,0.0,0.0,41,0.00,,---,0.00,VWS V14.01,2013-08-18 12:51:00,
2013-08-18 04:56:00,55.9,33.2,29.03,SW,214,0.0,0.0,42,0.00,,---,0.00,VWS V14.01,2013-08-18 12:56:00,
2013-08-18 05:02:00,55.8,33.0,29.03,SW,214,0.0,0.0,42,0.00,,---,0.00,VWS V14.01,2013-08-18 13:02:00,
2013-08-18 05:07:00,55.9,34.9,29.03,SSW,213,0.0,0.0,45,0.00,,---,0.00,VWS V14.01,2013-08-18 13:07:00,
2013-08-18 05:13:00,55.8,34.8,29.03,SW,214,0.0,0.0,45,0.00,,---,0.00,VWS V14.01,2013-08-18 13:13:00,
2013-08-18 05:18:00,55.8,33.6,29.03,SW,214,0.0,0.0,43,0.00,,---,0.00,VWS V14.01,2013-08-18 13:18:00,
2013-08-18 05:23:00,55.8,33.6,29.03,SSW,213,0.0,0.0,43,0.00,,---,0.00,VWS V14.01,2013-08-18 13:23:00,
2013-08-18 05:29:00,55.4,33.9,29.03,SW,214,0.0,0.0,44,0.00,,---,0.00,VWS V14.01,2013-08-18 13:29:00,
2013-08-18 05:34:00,55.4,34.4,29.03,SW,214,0.0,0.0,45,0.00,,---,0.00,VWS V14.01,2013-08-18 13:34:00,
2013-08-18 05:40:00,55.2,34.8,29.03,SW,214,0.0,0.0,46,0.00,,---,0.00,VWS V14.01,2013-08-18 13:40:00,
2013-08-18 05:45:00,55.6,35.2,29.03,SSW,213,0.0,0.0,46,0.00,,---,0.00,VWS V14.01,2013-08-18 13:45:00,
2013-08-18 05:50:00,55.2,34.8,29.03,SSW,213,0.0,0.0,46,0.00,,---,0.00,VWS V14.01,2013-08-18 13:50:00,
2013-08-18 05:55:00,55.2,34.8,29.03,SW,214,0.0,0.0,46,0.00,,---,0.00,VWS V14.01,2013-08-18 13:55:00,
2013-08-18 06:01:00,55.2,35.4,29.03,SW,214,0.0,0.0,47,0.00,,---,0.00,VWS V14.01,2013-08-18 14:01:00,
2013-08-18 06:06:00,55.4,35.5,29.03,SSW,213,0.0,0.0,47,0.00,,---,0.00,VWS V14.01,2013-08-18 14:06:00,
2013-08-18 06:11:00,55.2,35.4,29.03,SW,214,0.0,0.0,47,0.00,,---,0.00,VWS V14.01,2013-08-18 14:11:00,
2013-08-18 06:16:00,54.9,34.5,29.03,SSW,213,0.0,0.0,46,0.00,,---,0.00,VWS V14.01,2013-08-18 14:16:00,
2013-08-18 06:22:00,54.9,35.0,29.03,SSW,213,0.0,0.0,47,0.00,,---,0.00,VWS V14.01,2013-08-18 14:22:00,
2013-08-18 06:27:00,54.5,34.7,29.03,SW,214,0.0,0.0,47,0.00,,---,0.00,VWS V14.01,2013-08-18 14:27:00,
2013-08-18 06:33:00,54.0,34.2,29.03,SSW,213,0.0,0.0,47,0.00,,---,0.00,VWS V14.01,2013-08-18 14:33:00,
2013-08-18 06:39:00,53.6,33.9,29.03,SSW,213,0.0,0.0,47,0.00,,---,0.00,VWS V14.01,2013-08-18 14:39:00,
2013-08-18 06:44:00,53.8,34.6,29.03,SSW,213,0.0,0.0,48,0.00,,---,0.00,VWS V14.01,2013-08-18 14:44:00,
2013-08-18 06:50:00,54.7,36.9,29.03,SSW,213,0.0,0.0,51,0.00,,---,0.00,VWS V14.01,2013-08-18 14:50:00,
2013-08-18 06:55:00,54.5,37.2,29.03,SSW,213,0.0,0.0,52,0.00,,---,0.00,VWS V14.01,2013-08-18 14:55:00,
2013-08-18 07:00:00,54.7,38.4,29.03,SSW,213,0.0,0.0,54,0.00,,---,0.00,VWS V14.01,2013-08-18 15:00:00,
2013-08-18 07:05:00,54.5,38.2,29.03,SW,214,0.0,0.0,54,0.00,,---,0.00,VWS V14.01,2013-08-18 15:05:00,
2013-08-18 07:10:00,54.1,37.9,29.03,SW,214,0.0,0.0,54,0.00,,---,0.00,VWS V14.01,2013-08-18 15:10:00,
2013-08-18 07:15:00,54.0,37.7,29.03,SW,214,0.0,0.0,54,0.00,,---,0.00,VWS V14.01,2013-08-18 15:15:00,
2013-08-18 07:21:00,54.0,37.2,29.03,SSW,213,0.0,0.0,53,0.00,,---,0.00,VWS V14.01,2013-08-18 15:21:00,
2013-08-18 07:26:00,54.0,37.2,29.03,SSW,213,0.0,0.0,53,0.00,,---,0.00,VWS V14.01,2013-08-18 15:26:00,
2013-08-18 07:31:00,54.1,37.4,29.03,SSW,213,0.0,0.0,53,0.00,,---,0.00,VWS V14.01,2013-08-18 15:31:00,
2013-08-18 07:37:00,54.7,38.8,29.03,SSW,213,0.0,0.0,55,0.00,,---,0.00,VWS V14.01,2013-08-18 15:37:00,
2013-08-18 07:43:00,55.0,39.2,29.03,SSW,213,0.0,0.0,55,0.00,,---,0.00,VWS V14.01,2013-08-18 15:43:00,
2013-08-18 07:49:00,55.0,38.7,29.03,SW,214,0.0,0.0,54,0.00,,---,0.00,VWS V14.01,2013-08-18 15:49:00,
2013-08-18 07:54:00,55.2,38.4,29.03,SSW,213,0.0,0.0,53,0.00,,---,0.00,VWS V14.01,2013-08-18 15:54:00,
2013-08-18 08:00:00,55.4,37.6,29.03,SE,126,0.0,0.0,51,0.00,,---,0.00,VWS V14.01,2013-08-18 16:00:00,
2013-08-18 08:05:00,55.4,37.1,29.03,SE,126,0.0,0.0,50,0.00,,---,0.00,VWS V14.01,2013-08-18 16:05:00,
2013-08-18 08:10:00,55.4,37.1,29.03,SE,126,0.0,0.0,50,0.00,,---,0.00,VWS V14.01,2013-08-18 16:10:00,
2013-08-18 08:15:00,56.3,37.4,29.03,SE,126,0.0,0.0,49,0.00,,---,0.00,VWS V14.01,2013-08-18 16:15:00,
2013-08-18 08:21:00,56.7,37.2,29.03,SE,126,0.0,0.0,48,0.00,,---,0.00,VWS V14.01,2013-08-18 16:21:00,
2013-08-18 08:26:00,57.0,38.1,29.03,SE,126,0.0,0.0,49,0.00,,---,0.00,VWS V14.01,2013-08-18 16:26:00,
2013-08-18 08:32:00,56.8,37.4,29.06,SE,126,0.0,0.0,48,0.00,,---,0.00,VWS V14.01,2013-08-18 16:32:00,
2013-08-18 08:37:00,58.5,38.3,29.06,SE,125,0.0,0.0,47,0.00,,---,0.00,VWS V14.01,2013-08-18 16:37:00,
2013-08-18 08:42:00,59.9,37.4,29.06,SE,126,0.0,0.0,43,0.00,,---,0.00,VWS V14.01,2013-08-18 16:42:00,
2013-08-18 08:47:00,61.5,31.4,29.03,SE,125,0.0,0.0,32,0.00,,---,0.00,VWS V14.01,2013-08-18 16:47:00,
2013-08-18 08:53:00,60.3,24.3,29.03,SE,125,2.7,3.6,25,0.00,,---,0.00,VWS V14.01,2013-08-18 16:53:00,
2013-08-18 08:59:00,59.9,24.0,29.03,SE,142,3.1,4.0,25,0.00,,---,0.00,VWS V14.01,2013-08-18 16:59:00,
2013-08-18 09:04:00,62.6,24.3,29.06,ESE,112,3.1,3.6,23,0.00,,---,0.00,VWS V14.01,2013-08-18 17:04:00,
2013-08-18 09:10:00,63.9,25.4,29.06,SE,139,2.2,2.7,23,0.00,,---,0.00,VWS V14.01,2013-08-18 17:10:00,
2013-08-18 09:15:00,65.5,20.9,29.06,ESE,118,2.7,2.7,18,0.00,,---,0.00,VWS V14.01,2013-08-18 17:15:00,
2013-08-18 09:20:00,64.2,19.9,29.06,ESE,122,4.0,4.0,18,0.00,,---,0.00,VWS V14.01,2013-08-18 17:20:00,
2013-08-18 09:25:00,64.8,20.3,29.06,SE,136,0.0,0.0,18,0.00,,---,0.00,VWS V14.01,2013-08-18 17:25:00,
2013-08-18 09:31:00,65.7,21.0,29.06,ESE,119,2.2,2.7,18,0.00,,---,0.00,VWS V14.01,2013-08-18 17:31:00,
2013-08-18 09:36:00,65.5,20.9,29.06,ESE,105,2.7,4.0,18,0.00,,---,0.00,VWS V14.01,2013-08-18 17:36:00,
2013-08-18 09:42:00,67.1,20.9,29.06,East,97,2.7,3.1,17,0.00,,---,0.00,VWS V14.01,2013-08-18 17:42:00,
2013-08-18 09:48:00,66.9,20.7,29.06,SE,141,0.0,0.0,17,0.00,,---,0.00,VWS V14.01,2013-08-18 17:48:00,
2013-08-18 09:53:00,68.9,22.3,29.06,East,85,2.7,3.6,17,0.00,,---,0.00,VWS V14.01,2013-08-18 17:53:00,
2013-08-18 09:58:00,68.7,22.2,29.06,ESE,117,3.6,4.0,17,0.00,,---,0.00,VWS V14.01,2013-08-18 17:58:00,
2013-08-18 10:03:00,68.4,21.9,29.06,ESE,112,3.1,4.0,17,0.00,,---,0.00,VWS V14.01,2013-08-18 18:03:00,
2013-08-18 10:09:00,68.5,19.1,29.06,ENE,78,4.0,4.0,15,0.00,,---,0.00,VWS V14.01,2013-08-18 18:09:00,
2013-08-18 10:14:00,69.4,19.8,29.06,ESE,104,2.7,3.1,15,0.00,,---,0.00,VWS V14.01,2013-08-18 18:14:00,
2013-08-18 10:20:00,68.5,19.1,29.06,East,87,3.1,3.6,15,0.00,,---,0.00,VWS V14.01,2013-08-18 18:20:00,
2013-08-18 10:25:00,70.9,19.4,29.06,East,93,3.6,4.0,14,0.00,,---,0.00,VWS V14.01,2013-08-18 18:25:00,
2013-08-18 10:30:00,71.8,20.1,29.06,East,88,3.1,3.6,14,0.00,,---,0.00,VWS V14.01,2013-08-18 18:30:00,
2013-08-18 10:36:00,67.5,18.2,29.06,SE,132,2.7,3.6,15,0.00,,---,0.00,VWS V14.01,2013-08-18 18:36:00,
2013-08-18 10:42:00,68.5,19.1,29.06,SE,138,2.2,3.6,15,0.00,,---,0.00,VWS V14.01,2013-08-18 18:42:00,
2013-08-18 10:47:00,69.3,19.7,29.06,ESE,115,5.4,5.4,15,0.00,,---,0.00,VWS V14.01,2013-08-18 18:47:00,
2013-08-18 10:52:00,66.7,17.6,29.06,SE,144,4.9,4.9,15,0.00,,---,0.00,VWS V14.01,2013-08-18 18:52:00,
2013-08-18 10:58:00,69.8,18.5,29.06,ESE,120,4.9,4.9,14,0.00,,---,0.00,VWS V14.01,2013-08-18 18:58:00,
2013-08-18 11:03:00,70.3,18.9,29.06,SE,141,5.8,5.8,14,0.00,,---,0.00,VWS V14.01,2013-08-18 19:03:00,
2013-08-18 11:09:00,68.2,18.8,29.06,SSW,207,4.9,6.3,15,0.00,,---,0.00,VWS V14.01,2013-08-18 19:09:00,
2013-08-18 11:14:00,71.8,20.1,29.06,SSE,147,5.8,5.8,14,0.00,,---,0.00,VWS V14.01,2013-08-18 19:14:00,
2013-08-18 11:20:00,70.5,19.1,29.06,WSW,239,4.0,5.4,14,0.00,,---,0.00,VWS V14.01,2013-08-18 19:20:00,
2013-08-18 11:26:00,71.2,19.6,29.06,North,357,2.7,3.1,14,0.00,,---,0.00,VWS V14.01,2013-08-18 19:26:00,
2013-08-18 11:31:00,71.6,19.9,29.06,ENE,78,2.7,2.7,14,0.00,,---,0.00,VWS V14.01,2013-08-18 19:31:00,
2013-08-18 11:37:00,71.4,19.8,29.06,East,100,0.0,0.0,14,0.00,,---,0.00,VWS V14.01,2013-08-18 19:37:00,
2013-08-18 11:42:00,70.5,19.1,29.06,SW,216,2.7,2.7,14,0.00,,---,0.00,VWS V14.01,2013-08-18 19:42:00,
2013-08-18 11:48:00,70.3,18.9,29.06,SSE,168,2.7,2.7,14,0.00,,---,0.00,VWS V14.01,2013-08-18 19:48:00,
2013-08-18 11:54:00,72.0,20.2,29.06,NE,41,0.0,0.0,14,0.00,,---,0.00,VWS V14.01,2013-08-18 19:54:00,
2013-08-18 11:59:00,69.6,20.0,29.06,WSW,248,6.3,6.3,15,0.00,,---,0.00,VWS V14.01,2013-08-18 19:59:00,
2013-08-18 12:05:00,68.4,19.0,29.06,West,281,2.2,4.0,15,0.00,,---,0.00,VWS V14.01,2013-08-18 20:05:00,
2013-08-18 12:10:00,67.3,18.1,29.06,SW,220,2.7,2.7,15,0.00,,---,0.00,VWS V14.01,2013-08-18 20:10:00,
2013-08-18 12:16:00,67.1,17.9,29.06,WNW,294,2.7,3.1,15,0.00,,---,0.00,VWS V14.01,2013-08-18 20:16:00,
2013-08-18 12:21:00,67.1,17.9,29.06,SE,146,2.7,3.6,15,0.00,,---,0.00,VWS V14.01,2013-08-18 20:21:00,
2013-08-18 12:27:00,66.0,17.1,29.06,SE,140,5.8,5.8,15,0.00,,---,0.00,VWS V14.01,2013-08-18 20:27:00,
2013-08-18 12:32:00,66.4,17.4,29.06,SE,136,2.2,5.4,15,0.00,,---,0.00,VWS V14.01,2013-08-18 20:32:00,
2013-08-18 12:37:00,70.2,18.8,29.06,SSW,213,5.4,5.4,14,0.00,,---,0.00,VWS V14.01,2013-08-18 20:37:00,
2013-08-18 12:42:00,70.5,19.1,29.06,WNW,303,0.0,3.6,14,0.00,,---,0.00,VWS V14.01,2013-08-18 20:42:00,
2013-08-18 12:48:00,69.4,19.8,29.06,SSW,203,3.6,3.6,15,0.00,,---,0.00,VWS V14.01,2013-08-18 20:48:00,
2013-08-18 12:54:00,70.2,18.8,29.06,SW,228,0.0,0.0,14,0.00,,---,0.00,VWS V14.01,2013-08-18 20:54:00,
2013-08-18 12:59:00,70.2,18.8,29.06,WSW,252,3.6,3.6,14,0.00,,---,0.00,VWS V14.01,2013-08-18 20:59:00,
2013-08-18 13:05:00,70.9,19.4,29.06,SSE,163,0.0,2.2,14,0.00,,---,0.00,VWS V14.01,2013-08-18 21:05:00,
2013-08-18 13:10:00,77.2,22.6,29.06,SSW,194,2.7,3.1,13,0.00,,---,0.00,VWS V14.01,2013-08-18 21:10:00,
2013-08-18 13:16:00,83.3,29.2,29.06,WSW,246,4.0,5.8,14,0.00,,---,0.00,VWS V14.01,2013-08-18 21:16:00,
2013-08-18 13:22:00,80.2,28.4,29.06,ESE,111,4.0,4.0,15,0.00,,---,0.00,VWS V14.01,2013-08-18 21:22:00,
2013-08-18 13:27:00,75.7,21.5,29.06,ESE,117,0.0,2.7,13,0.00,,---,0.00,VWS V14.01,2013-08-18 21:27:00,
2013-08-18 13:33:00,73.0,21.1,29.06,SW,224,3.1,3.6,14,0.00,,---,0.00,VWS V14.01,2013-08-18 21:33:00,
2013-08-18 13:38:00,73.8,19.9,29.06,SSW,205,4.0,4.0,13,0.00,,---,0.00,VWS V14.01,2013-08-18 21:38:00,
2013-08-18 13:43:00,74.1,20.2,29.06,SW,233,4.9,4.9,13,0.00,,---,0.00,VWS V14.01,2013-08-18 21:43:00,
2013-08-18 13:48:00,74.5,20.5,29.06,SW,216,7.2,8.3,13,0.00,,---,0.00,VWS V14.01,2013-08-18 21:48:00,
2013-08-18 13:53:00,75.4,24.6,29.06,South,180,3.6,5.8,15,0.00,,---,0.00,VWS V14.01,2013-08-18 21:53:00,
2013-08-18 13:58:00,72.3,23.6,29.06,SE,144,5.8,8.1,16,0.00,,---,0.00,VWS V14.01,2013-08-18 21:58:00,
2013-08-18 14:04:00,71.6,19.9,29.06,South,188,5.8,5.8,14,0.00,,---,0.00,VWS V14.01,2013-08-18 22:04:00,
2013-08-18 14:09:00,76.5,22.0,29.06,WSW,243,0.0,4.0,13,0.00,,---,0.00,VWS V14.01,2013-08-18 22:09:00,
2013-08-18 14:15:00,78.4,27.0,29.06,SSW,212,3.6,4.0,15,0.00,,---,0.00,VWS V14.01,2013-08-18 22:15:00,
2013-08-18 14:20:00,76.5,25.4,29.06,SE,124,5.4,5.4,15,0.00,,---,0.00,VWS V14.01,2013-08-18 22:20:00,
2013-08-18 14:26:00,75.4,21.2,29.06,SSE,148,0.0,0.0,13,0.00,,---,0.00,VWS V14.01,2013-08-18 22:26:00,
2013-08-18 14:31:00,72.0,20.2,29.06,North,357,0.0,2.7,14,0.00,,---,0.00,VWS V14.01,2013-08-18 22:31:00,
2013-08-18 14:37:00,69.6,20.0,29.06,SSE,167,0.0,2.2,15,0.00,,---,0.00,VWS V14.01,2013-08-18 22:37:00,
2013-08-18 14:42:00,68.0,18.7,29.06,WSW,243,4.0,6.3,15,0.00,,---,0.00,VWS V14.01,2013-08-18 22:42:00,
2013-08-18 14:47:00,67.3,18.1,29.06,WSW,250,3.6,4.0,15,0.00,,---,0.00,VWS V14.01,2013-08-18 22:47:00,
2013-08-18 14:53:00,67.5,18.2,29.06,SW,236,0.0,2.7,15,0.00,,---,0.00,VWS V14.01,2013-08-18 22:53:00,
2013-08-18 14:58:00,66.7,17.6,29.06,South,173,4.9,5.8,15,0.00,,---,0.00,VWS V14.01,2013-08-18 22:58:00,
2013-08-18 15:04:00,67.1,17.9,29.06,South,187,2.7,3.6,15,0.00,,---,0.00,VWS V14.01,2013-08-18 23:04:00,
2013-08-18 15:09:00,67.3,18.1,29.06,South,187,3.6,4.0,15,0.00,,---,0.00,VWS V14.01,2013-08-18 23:09:00,
2013-08-18 15:15:00,70.3,18.9,29.06,SE,135,3.6,5.4,14,0.00,,---,0.00,VWS V14.01,2013-08-18 23:15:00,
2013-08-18 15:21:00,68.0,18.7,29.06,SE,137,3.1,4.0,15,0.00,,---,0.00,VWS V14.01,2013-08-18 23:21:00,
2013-08-18 15:26:00,72.9,20.9,29.06,SSE,158,0.0,4.0,14,0.00,,---,0.00,VWS V14.01,2013-08-18 23:26:00,
2013-08-18 15:32:00,71.2,19.6,29.06,South,191,4.9,5.8,14,0.00,,---,0.00,VWS V14.01,2013-08-18 23:32:00,
2013-08-18 15:37:00,70.2,18.8,29.06,South,172,3.6,4.0,14,0.00,,---,0.00,VWS V14.01,2013-08-18 23:37:00,
2013-08-18 15:42:00,69.8,18.5,29.06,SE,139,4.0,4.9,14,0.00,,---,0.00,VWS V14.01,2013-08-18 23:42:00,
2013-08-18 15:47:00,68.7,19.2,29.06,WSW,239,2.2,4.0,15,0.00,,---,0.00,VWS V14.01,2013-08-18 23:47:00,
2013-08-18 15:52:00,68.2,18.8,29.06,SSW,198,3.1,4.9,15,0.00,,---,0.00,VWS V14.01,2013-08-18 23:52:00,
2013-08-18 15:57:00,68.9,19.4,29.06,SSW,202,3.6,5.4,15,0.00,,---,0.00,VWS V14.01,2013-08-18 23:57:00,
2013-08-18 16:03:00,69.8,18.5,29.06,SSW,210,2.7,2.7,14,0.00,,---,0.00,VWS V14.01,2013-08-19 00:03:00,
2013-08-18 16:08:00,69.4,19.8,29.06,SE,145,2.7,3.6,15,0.00,,---,0.00,VWS V14.01,2013-08-19 00:08:00,
2013-08-18 16:13:00,68.4,19.0,29.06,SE,141,5.4,5.4,15,0.00,,---,0.00,VWS V14.01,2013-08-19 00:13:00,
2013-08-18 16:18:00,67.5,18.2,29.06,SSE,148,3.1,3.1,15,0.00,,---,0.00,VWS V14.01,2013-08-19 00:18:00,
2013-08-18 16:23:00,67.3,18.1,29.06,SSW,197,2.2,5.8,15,0.00,,---,0.00,VWS V14.01,2013-08-19 00:23:00,
2013-08-18 16:29:00,67.6,18.4,29.06,SSW,209,5.8,5.8,15,0.00,,---,0.00,VWS V14.01,2013-08-19 00:29:00,
2013-08-18 16:35:00,69.4,19.8,29.06,SW,226,5.4,6.3,15,0.00,,---,0.00,VWS V14.01,2013-08-19 00:35:00,
2013-08-18 16:40:00,72.1,20.4,29.06,SW,223,4.0,6.3,14,0.00,,---,0.00,VWS V14.01,2013-08-19 00:40:00,
2013-08-18 16:44:00,72.5,20.6,29.06,WSW,245,5.4,5.8,14,0.00,,---,0.00,VWS V14.01,2013-08-19 00:44:00,
2013-08-18 16:50:00,74.7,20.6,29.06,WSW,258,3.6,6.3,13,0.00,,---,0.00,VWS V14.01,2013-08-19 00:50:00,
2013-08-18 16:56:00,75.0,20.9,29.06,WNW,284,3.1,3.1,13,0.00,,---,0.00,VWS V14.01,2013-08-19 00:56:00,
2013-08-18 17:01:00,75.4,24.6,29.06,SSE,148,3.6,3.6,15,0.00,,---,0.00,VWS V14.01,2013-08-19 01:01:00,
2013-08-18 17:07:00,75.9,21.6,29.06,WNW,288,3.1,5.4,13,0.00,,---,0.00,VWS V14.01,2013-08-19 01:07:00,
2013-08-18 17:13:00,76.6,25.6,29.06,SW,222,0.0,0.0,15,0.00,,---,0.00,VWS V14.01,2013-08-19 01:13:00,
2013-08-18 17:18:00,72.9,24.1,29.06,SSE,158,4.0,5.4,16,0.00,,---,0.00,VWS V14.01,2013-08-19 01:18:00,
2013-08-18 17:23:00,73.8,19.9,29.06,SSE,159,3.6,4.0,13,0.00,,---,0.00,VWS V14.01,2013-08-19 01:23:00,
2013-08-18 17:29:00,77.0,25.9,29.06,SW,227,3.1,4.0,15,0.00,,---,0.00,VWS V14.01,2013-08-19 01:29:00,
2013-08-18 17:35:00,70.0,18.6,29.06,South,170,4.0,5.8,14,0.00,,---,0.00,VWS V14.01,2013-08-19 01:35:00,
2013-08-18 17:40:00,69.4,19.8,29.06,SSW,209,2.2,4.0,15,0.00,,---,0.00,VWS V14.01,2013-08-19 01:40:00,
2013-08-18 17:46:00,68.4,19.0,29.03,South,182,2.2,4.0,15,0.00,,---,0.00,VWS V14.01,2013-08-19 01:46:00,
2013-08-18 17:51:00,68.4,19.0,29.03,WSW,239,3.1,3.6,15,0.00,,---,0.00,VWS V14.01,2013-08-19 01:51:00,
2013-08-18 17:56:00,68.2,18.8,29.03,WSW,248,4.0,4.0,15,0.00,,---,0.00,VWS V14.01,2013-08-19 01:56:00,
2013-08-18 18:01:00,68.0,18.7,29.06,WSW,256,2.7,3.1,15,0.00,,---,0.00,VWS V14.01,2013-08-19 02:01:00,
2013-08-18 18:07:00,68.2,18.8,29.06,WNW,285,0.0,3.1,15,0.00,,---,0.00,VWS V14.01,2013-08-19 02:07:00,
2013-08-18 18:13:00,67.3,18.1,29.06,NW,315,2.7,3.6,15,0.00,,---,0.00,VWS V14.01,2013-08-19 02:13:00,
2013-08-18 18:18:00,66.0,17.1,29.06,WNW,291,3.1,3.1,15,0.00,,---,0.00,VWS V14.01,2013-08-19 02:18:00,
2013-08-18 18:24:00,64.9,20.4,29.06,NNW,333,0.0,0.0,18,0.00,,---,0.00,VWS V14.01,2013-08-19 02:24:00,
2013-08-18 18:29:00,64.6,20.1,29.06,West,275,2.7,2.7,18,0.00,,---,0.00,VWS V14.01,2013-08-19 02:29:00,
2013-08-18 18:34:00,64.6,22.6,29.06,West,275,0.0,0.0,20,0.00,,---,0.00,VWS V14.01,2013-08-19 02:34:00,
2013-08-18 18:40:00,65.1,20.6,29.06,West,275,2.2,2.7,18,0.00,,---,0.00,VWS V14.01,2013-08-19 02:40:00,
2013-08-18 18:45:00,64.4,26.9,29.06,WNW,301,2.7,2.7,24,0.00,,---,0.00,VWS V14.01,2013-08-19 02:45:00,
2013-08-18 18:50:00,63.9,26.4,29.03,WNW,300,0.0,0.0,24,0.00,,---,0.00,VWS V14.01,2013-08-19 02:50:00,
2013-08-18 18:56:00,63.9,26.4,29.03,WNW,300,0.0,0.0,24,0.00,,---,0.00,VWS V14.01,2013-08-19 02:56:00,
2013-08-18 19:01:00,66.4,20.3,29.06,WSW,246,0.0,0.0,17,0.00,,---,0.00,VWS V14.01,2013-08-19 03:01:00,
2013-08-18 19:07:00,68.0,18.7,29.06,West,273,0.0,0.0,15,0.00,,---,0.00,VWS V14.01,2013-08-19 03:07:00,
2013-08-18 19:12:00,70.3,18.9,29.06,South,172,2.2,2.2,14,0.00,,---,0.00,VWS V14.01,2013-08-19 03:12:00,
2013-08-18 19:18:00,71.4,19.8,29.06,South,173,0.0,2.2,14,0.00,,---,0.00,VWS V14.01,2013-08-19 03:18:00,
2013-08-18 19:24:00,71.4,19.8,29.06,SSE,163,0.0,2.2,14,0.00,,---,0.00,VWS V14.01,2013-08-19 03:24:00,
2013-08-18 19:29:00,70.7,19.2,29.06,SSE,163,0.0,0.0,14,0.00,,---,0.00,VWS V14.01,2013-08-19 03:29:00,
2013-08-18 19:35:00,70.9,19.4,29.06,SSE,163,0.0,0.0,14,0.00,,---,0.00,VWS V14.01,2013-08-19 03:35:00,
2013-08-18 19:41:00,70.5,19.1,29.06,SSE,163,0.0,0.0,14,0.00,,---,0.00,VWS V14.01,2013-08-19 03:41:00,
2013-08-18 19:46:00,70.7,19.2,29.06,SSE,164,0.0,0.0,14,0.00,,---,0.00,VWS V14.01,2013-08-19 03:46:00,
2013-08-18 19:52:00,71.8,20.1,29.06,SSE,163,0.0,0.0,14,0.00,,---,0.00,VWS V14.01,2013-08-19 03:52:00,
2013-08-18 19:57:00,71.6,19.9,29.06,SSE,164,0.0,0.0,14,0.00,,---,0.00,VWS V14.01,2013-08-19 03:57:00,
2013-08-18 20:02:00,70.2,18.8,29.06,SSE,164,0.0,0.0,14,0.00,,---,0.00,VWS V14.01,2013-08-19 04:02:00,
2013-08-18 20:03:00,70.3,18.9,29.06,SSE,164,0.0,0.0,14,0.00,,---,0.00,VWS V14.01,2013-08-19 04:03:00,
2013-08-18 20:04:00,70.3,18.9,29.06,SSE,163,0.0,0.0,14,0.00,,---,0.00,VWS V14.01,2013-08-19 04:04:00,
2013-08-18 20:10:00,70.2,18.8,29.06,SSE,164,0.0,0.0,14,0.00,,---,0.00,VWS V14.01,2013-08-19 04:10:00,
2013-08-18 20:14:00,69.8,18.5,29.06,SSE,164,0.0,0.0,14,0.00,,---,0.00,VWS V14.01,2013-08-19 04:14:00,
2013-08-18 20:20:00,68.7,19.2,29.06,SSE,164,0.0,0.0,15,0.00,,---,0.00,VWS V14.01,2013-08-19 04:20:00,
2013-08-18 20:25:00,67.5,18.2,29.06,SSE,163,0.0,0.0,15,0.00,,---,0.00,VWS V14.01,2013-08-19 04:25:00,
2013-08-18 20:31:00,65.1,20.6,29.06,SSE,163,0.0,0.0,18,0.00,,---,0.00,VWS V14.01,2013-08-19 04:31:00,
2013-08-18 20:37:00,63.0,22.5,29.06,SSE,163,0.0,0.0,21,0.00,,---,0.00,VWS V14.01,2013-08-19 04:37:00,
2013-08-18 20:43:00,61.3,25.2,29.06,SSE,163,0.0,0.0,25,0.00,,---,0.00,VWS V14.01,2013-08-19 04:43:00,
2013-08-18 20:48:00,61.2,26.0,29.06,SSE,163,0.0,0.0,26,0.00,,---,0.00,VWS V14.01,2013-08-19 04:48:00,
2013-08-18 20:53:00,60.6,28.2,29.06,SSE,164,0.0,0.0,29,0.00,,---,0.00,VWS V14.01,2013-08-19 04:53:00,
2013-08-18 20:58:00,60.8,32.3,29.06,SSE,163,0.0,0.0,34,0.00,,---,0.00,VWS V14.01,2013-08-19 04:58:00,
2013-08-18 21:03:00,59.7,27.4,29.06,SSE,163,0.0,0.0,29,0.00,,---,0.00,VWS V14.01,2013-08-19 05:03:00,
2013-08-18 21:09:00,59.5,28.1,29.06,SSE,163,0.0,0.0,30,0.00,,---,0.00,VWS V14.01,2013-08-19 05:09:00,
2013-08-18 21:14:00,59.0,27.6,29.06,SSE,163,0.0,0.0,30,0.00,,---,0.00,VWS V14.01,2013-08-19 05:14:00,
2013-08-18 21:20:00,58.5,30.2,29.06,SSE,163,0.0,0.0,34,0.00,,---,0.00,VWS V14.01,2013-08-19 05:20:00,
2013-08-18 21:26:00,58.5,32.3,29.06,SSE,164,0.0,0.0,37,0.00,,---,0.00,VWS V14.01,2013-08-19 05:26:00,
2013-08-18 21:32:00,58.1,32.7,29.06,SSE,163,0.0,0.0,38,0.00,,---,0.00,VWS V14.01,2013-08-19 05:32:00,
2013-08-18 21:37:00,58.5,36.7,29.06,SSE,164,0.0,0.0,44,0.00,,---,0.00,VWS V14.01,2013-08-19 05:37:00,
2013-08-18 21:42:00,58.8,37.5,29.06,SSE,163,0.0,0.0,45,0.00,,---,0.00,VWS V14.01,2013-08-19 05:42:00,
2013-08-18 21:48:00,58.3,35.3,29.06,SSE,163,0.0,0.0,42,0.00,,---,0.00,VWS V14.01,2013-08-19 05:48:00,
2013-08-18 21:54:00,58.5,36.7,29.06,SSE,163,0.0,0.0,44,0.00,,---,0.00,VWS V14.01,2013-08-19 05:54:00,
2013-08-18 22:00:00,58.8,39.7,29.06,SSE,163,0.0,0.0,49,0.00,,---,0.00,VWS V14.01,2013-08-19 06:00:00,
2013-08-18 22:05:00,58.6,39.5,29.06,SSE,163,0.0,0.0,49,0.00,,---,0.00,VWS V14.01,2013-08-19 06:05:00,
2013-08-18 22:10:00,58.8,40.8,29.06,SSE,163,0.0,0.0,51,0.00,,---,0.00,VWS V14.01,2013-08-19 06:10:00,
2013-08-18 22:15:00,58.6,41.6,29.06,SSE,163,0.0,0.0,53,0.00,,---,0.00,VWS V14.01,2013-08-19 06:15:00,
2013-08-18 22:21:00,58.5,39.9,29.06,SSE,163,3.1,4.0,50,0.00,,---,0.00,VWS V14.01,2013-08-19 06:21:00,
2013-08-18 22:26:00,58.6,35.6,29.06,NNW,345,3.6,4.0,42,0.00,,---,0.00,VWS V14.01,2013-08-19 06:26:00,
2013-08-18 22:31:00,58.3,34.1,29.06,NNW,339,3.1,3.1,40,0.00,,---,0.00,VWS V14.01,2013-08-19 06:31:00,
2013-08-18 22:36:00,58.3,32.8,29.06,North,357,3.1,3.1,38,0.00,,---,0.00,VWS V14.01,2013-08-19 06:36:00,
2013-08-18 22:42:00,58.1,31.3,29.06,North,353,4.0,4.0,36,0.00,,---,0.00,VWS V14.01,2013-08-19 06:42:00,
2013-08-18 22:47:00,57.9,31.1,29.06,North,357,3.1,3.6,36,0.00,,---,0.00,VWS V14.01,2013-08-19 06:47:00,
2013-08-18 22:52:00,57.9,30.5,29.06,North,353,2.7,3.6,35,0.00,,---,0.00,VWS V14.01,2013-08-19 06:52:00,
2013-08-18 22:58:00,57.9,30.5,29.06,North,353,2.7,4.0,35,0.00,,---,0.00,VWS V14.01,2013-08-19 06:58:00,
2013-08-18 23:04:00,57.9,30.5,29.09,NNW,348,4.0,4.0,35,0.00,,---,0.00,VWS V14.01,2013-08-19 07:04:00,
2013-08-18 23:10:00,57.6,30.8,29.09,NNW,335,3.1,4.0,36,0.00,,---,0.00,VWS V14.01,2013-08-19 07:10:00,
2013-08-18 23:16:00,57.7,31.0,29.09,NNW,341,4.5,4.5,36,0.00,,---,0.00,VWS V14.01,2013-08-19 07:16:00,
2013-08-18 23:21:00,57.6,30.8,29.09,North,357,2.7,2.7,36,0.00,,---,0.00,VWS V14.01,2013-08-19 07:21:00,
2013-08-18 23:27:00,57.4,31.3,29.09,North,357,0.0,2.7,37,0.00,,---,0.00,VWS V14.01,2013-08-19 07:27:00,
2013-08-18 23:32:00,57.4,30.7,29.06,North,357,3.1,3.1,36,0.00,,---,0.00,VWS V14.01,2013-08-19 07:32:00,
2013-08-18 23:37:00,57.4,30.7,29.06,North,357,3.6,3.6,36,0.00,,---,0.00,VWS V14.01,2013-08-19 07:37:00,
2013-08-18 23:42:00,57.4,30.7,29.06,North,357,4.0,4.0,36,0.00,,---,0.00,VWS V14.01,2013-08-19 07:42:00,
2013-08-18 23:48:00,57.2,29.8,29.09,North,0,4.0,4.0,35,0.00,,---,0.00,VWS V14.01,2013-08-19 07:48:00,
2013-08-18 23:53:00,56.8,30.2,29.09,North,3,0.0,2.2,36,0.00,,---,0.00,VWS V14.01,2013-08-19 07:53:00,
2013-08-18 23:58:00,56.8,30.9,29.09,North,3,2.2,2.2,37,0.00,,---,0.00,VWS V14.01,2013-08-19 07:58:00,